Hourly Weather Bolshoe Sonino

Today, 2 August, Monday

Time Temperature Precipitation Wind Pressure Humidity
00:00 +21°C° 0 mm 2 mps 743 mmHg 67%
01:00 +21°C° 0 mm 2 mps 743 mmHg 70%
02:00 +20°C° 0 mm 2 mps 743 mmHg 72%
03:00 +20°C° 0.2 mm 2 mps 742 mmHg 75%
04:00 +20°C° 0.2 mm 2 mps 742 mmHg 79%
05:00 +20°C° 0.2 mm 2 mps 742 mmHg 82%
06:00 +21°C° 0.1 mm 2 mps 742 mmHg 76%
07:00 +24°C° 0.1 mm 3 mps 742 mmHg 71%
08:00 +26°C° 0.1 mm 3 mps 742 mmHg 66%
09:00 +28°C° 0 mm 4 mps 742 mmHg 58%
10:00 +30°C° 0 mm 5 mps 741 mmHg 51%
11:00 +33°C° 0 mm 6 mps 741 mmHg 43%
12:00 +33°C° 0 mm 6 mps 741 mmHg 43%
13:00 +33°C° 0 mm 6 mps 740 mmHg 42%
14:00 +34°C° 0 mm 6 mps 740 mmHg 42%
15:00 +33°C° 0 mm 6 mps 739 mmHg 44%
16:00 +33°C° 0 mm 5 mps 739 mmHg 46%
17:00 +32°C° 0 mm 4 mps 738 mmHg 48%
18:00 +28°C° 0.4 mm 4 mps 739 mmHg 61%
19:00 +23°C° 0.4 mm 5 mps 739 mmHg 73%
20:00 +20°C° 0.4 mm 5 mps 739 mmHg 85%
21:00 +20°C° 0.6 mm 5 mps 739 mmHg 88%
22:00 +20°C° 0.6 mm 4 mps 739 mmHg 90%
23:00 +20°C° 0.6 mm 4 mps 740 mmHg 92%

Tomorrow, 3 August, Tuesday

Time Temperature Precipitation Wind Pressure Humidity
00:00 +19°C° 0 mm 4 mps 740 mmHg 94%
01:00 +19°C° 0 mm 3 mps 740 mmHg 95%
02:00 +18°C° 0 mm 3 mps 740 mmHg 97%
03:00 +18°C° 0 mm 3 mps 740 mmHg 96%
04:00 +18°C° 0 mm 3 mps 741 mmHg 95%
05:00 +17°C° 0 mm 3 mps 741 mmHg 95%
06:00 +18°C° 0 mm 3 mps 742 mmHg 88%
07:00 +19°C° 0 mm 3 mps 742 mmHg 82%
08:00 +20°C° 0 mm 3 mps 742 mmHg 75%
09:00 +21°C° 0 mm 3 mps 743 mmHg 67%
10:00 +22°C° 0 mm 3 mps 743 mmHg 59%
11:00 +25°C° 0 mm 3 mps 743 mmHg 51%
12:00 +25°C° 0 mm 3 mps 743 mmHg 49%
13:00 +26°C° 0 mm 4 mps 743 mmHg 47%
14:00 +26°C° 0 mm 4 mps 743 mmHg 45%
15:00 +25°C° 0 mm 4 mps 743 mmHg 52%
16:00 +23°C° 0 mm 4 mps 743 mmHg 58%
17:00 +21°C° 0 mm 4 mps 743 mmHg 64%
18:00 +20°C° 0 mm 3 mps 744 mmHg 68%
19:00 +19°C° 0 mm 3 mps 744 mmHg 72%
20:00 +18°C° 0 mm 2 mps 745 mmHg 76%
21:00 +17°C° 0 mm 2 mps 745 mmHg 75%
22:00 +17°C° 0 mm 2 mps 745 mmHg 73%
23:00 +16°C° 0 mm 2 mps 745 mmHg 72%

Day after tomorrow, 4 August, Wednesday

Time Temperature Precipitation Wind Pressure Humidity
00:00 +16°C° 0 mm 2 mps 745 mmHg 71%
01:00 +16°C° 0 mm 2 mps 746 mmHg 71%
02:00 +16°C° 0 mm 2 mps 746 mmHg 70%
03:00 +16°C° 0 mm 2 mps 746 mmHg 70%
04:00 +16°C° 0 mm 2 mps 746 mmHg 70%
05:00 +16°C° 0 mm 2 mps 746 mmHg 71%
06:00 +18°C° 0 mm 2 mps 747 mmHg 66%
07:00 +19°C° 0 mm 2 mps 747 mmHg 62%
08:00 +21°C° 0 mm 3 mps 747 mmHg 58%
09:00 +22°C° 0 mm 3 mps 747 mmHg 53%
10:00 +24°C° 0 mm 3 mps 747 mmHg 48%
11:00 +25°C° 0 mm 3 mps 747 mmHg 43%
12:00 +25°C° 0 mm 3 mps 747 mmHg 45%
13:00 +25°C° 0 mm 2 mps 747 mmHg 46%
14:00 +24°C° 0 mm 2 mps 747 mmHg 47%
15:00 +24°C° 0 mm 2 mps 747 mmHg 50%
16:00 +24°C° 0 mm 2 mps 747 mmHg 53%
17:00 +23°C° 0 mm 2 mps 747 mmHg 56%
18:00 +21°C° 0 mm 2 mps 748 mmHg 60%
19:00 +21°C° 0 mm 1 mps 748 mmHg 63%
20:00 +20°C° 0 mm 1 mps 748 mmHg 67%
21:00 +19°C° 0 mm 1 mps 748 mmHg 69%
22:00 +16°C° 0 mm 0 mps 748 mmHg 72%
23:00 +16°C° 0 mm 0 mps 748 mmHg 74%

5 August, Thursday

Time Temperature Precipitation Wind Pressure Humidity
00:00 +15°C° 0 mm 0 mps 748 mmHg 75%
01:00 +15°C° 0 mm 0 mps 748 mmHg 76%
02:00 +15°C° 0 mm 0 mps 748 mmHg 76%
03:00 +16°C° 0 mm 1 mps 748 mmHg 74%
04:00 +18°C° 0 mm 1 mps 749 mmHg 72%
05:00 +18°C° 0 mm 1 mps 749 mmHg 70%
06:00 +19°C° 0 mm 1 mps 749 mmHg 67%
07:00 +20°C° 0 mm 1 mps 749 mmHg 64%
08:00 +21°C° 0 mm 1 mps 749 mmHg 61%
09:00 +22°C° 0 mm 1 mps 749 mmHg 59%
10:00 +23°C° 0 mm 1 mps 749 mmHg 57%
11:00 +23°C° 0 mm 2 mps 749 mmHg 55%
12:00 +24°C° 0 mm 2 mps 749 mmHg 52%
13:00 +25°C° 0 mm 2 mps 749 mmHg 48%
14:00 +26°C° 0 mm 2 mps 748 mmHg 44%
15:00 +25°C° 0 mm 2 mps 748 mmHg 50%
16:00 +23°C° 0 mm 2 mps 748 mmHg 57%
17:00 +20°C° 0 mm 3 mps 748 mmHg 63%
18:00 +19°C° 0.2 mm 2 mps 748 mmHg 69%
19:00 +19°C° 0.2 mm 2 mps 748 mmHg 75%
20:00 +18°C° 0.2 mm 2 mps 748 mmHg 80%
21:00 +17°C° 0.4 mm 2 mps 748 mmHg 84%
22:00 +17°C° 0.4 mm 3 mps 748 mmHg 88%
23:00 +17°C° 0.4 mm 3 mps 748 mmHg 92%

6 August, Friday

Time Temperature Precipitation Wind Pressure Humidity
00:00 +17°C° 0 mm 3 mps 748 mmHg 92%
01:00 +17°C° 0 mm 4 mps 748 mmHg 91%
02:00 +17°C° 0 mm 4 mps 748 mmHg 90%
03:00 +17°C° 0 mm 4 mps 748 mmHg 89%
04:00 +15°C° 0 mm 4 mps 748 mmHg 88%
05:00 +15°C° 0 mm 5 mps 748 mmHg 87%
06:00 +17°C° 0 mm 5 mps 747 mmHg 79%
07:00 +20°C° 0 mm 6 mps 747 mmHg 72%
08:00 +21°C° 0 mm 6 mps 747 mmHg 64%
09:00 +23°C° 0 mm 6 mps 747 mmHg 58%
10:00 +24°C° 0 mm 6 mps 747 mmHg 52%
11:00 +27°C° 0 mm 6 mps 747 mmHg 46%
12:00 +27°C° 0 mm 5 mps 746 mmHg 45%
13:00 +28°C° 0 mm 5 mps 746 mmHg 43%
14:00 +28°C° 0 mm 4 mps 746 mmHg 42%
15:00 +28°C° 0 mm 4 mps 746 mmHg 44%
16:00 +28°C° 0 mm 4 mps 745 mmHg 46%
17:00 +27°C° 0 mm 4 mps 745 mmHg 49%
18:00 +26°C° 0 mm 5 mps 745 mmHg 50%
19:00 +25°C° 0 mm 5 mps 745 mmHg 51%
20:00 +22°C° 0 mm 6 mps 745 mmHg 52%
21:00 +22°C° 0 mm 6 mps 745 mmHg 52%
22:00 +22°C° 0 mm 6 mps 745 mmHg 52%
23:00 +21°C° 0 mm 6 mps 745 mmHg 51%

7 August, Saturday

Time Temperature Precipitation Wind Pressure Humidity
00:00 +21°C° 0 mm 5 mps 745 mmHg 52%
01:00 +21°C° 0 mm 5 mps 745 mmHg 52%
02:00 +20°C° 0 mm 4 mps 745 mmHg 53%
03:00 +20°C° 0 mm 4 mps 745 mmHg 54%
04:00 +20°C° 0 mm 4 mps 745 mmHg 56%
05:00 +20°C° 0 mm 4 mps 745 mmHg 57%
06:00 +21°C° 0 mm 3 mps 746 mmHg 56%
07:00 +22°C° 0 mm 3 mps 746 mmHg 54%
08:00 +24°C° 0 mm 3 mps 746 mmHg 52%
09:00 +26°C° 0 mm 3 mps 746 mmHg 46%
10:00 +28°C° 0 mm 4 mps 746 mmHg 41%
11:00 +30°C° 0 mm 4 mps 746 mmHg 35%
12:00 +30°C° 0 mm 4 mps 746 mmHg 35%
13:00 +30°C° 0 mm 5 mps 746 mmHg 36%
14:00 +30°C° 0 mm 5 mps 745 mmHg 37%
15:00 +28°C° 0 mm 4 mps 746 mmHg 45%
16:00 +26°C° 0 mm 4 mps 746 mmHg 53%
17:00 +24°C° 0 mm 3 mps 746 mmHg 62%
18:00 +22°C° 0.3 mm 3 mps 747 mmHg 66%
19:00 +21°C° 0.3 mm 2 mps 747 mmHg 71%
20:00 +21°C° 0.3 mm 2 mps 747 mmHg 75%
21:00 +21°C° 0 mm 2 mps 747 mmHg 76%
22:00 +20°C° 0 mm 2 mps 747 mmHg 77%
23:00 +20°C° 0 mm 2 mps 748 mmHg 78%
Show more

We Need Your Consent

Meteoprog and our Service Providers may store and access personal data such as cookies, device identifiers or other similar technologies on your device and process such data to personalise content and ads, as well as provide social media features and to analyse the traffic.

  • Store and/or access information on your device

    Cookies, device identifiers or other information can be stored or accessed on your device for the purposes indicated above.

  • Personalised ads and content, ad and content measurement, audience insights, and products development

    Ads and content can be personalised based on a profile. More data can be added to better personalise ads and content. Ad and content performance can be measured. Insights about the audience who saw the ads and content can be derived. Such data can be used to develop or improve user’s experience, systems and software.

By clicking ‘I Agree’ you will allow the use of indicated cookies, device identifiers, web beacons or other similar technologies. Your settings can be changed in the browser on your device.

For certain purposes, legitimate interests may be relied on, rather than consent. You can read more about this in our Privacy and Cookie Policy.